CZ-3B R/B, 45864

Orbit data source: Space-Track

CZ-3B R/B, 45864 is space debris in HEO originally from a launch on Thu, 09 Jul 2020 UTC launched from the Xichang Space Center, China (XSC). Debris objects in space refer to the collection of defunct objects orbiting the Earth. Examples of debris include non-operational satellites, rocket bodies, and fragments generated from explosions, collisions, or faulty payload assembly.

Loading next visibility...
Identifier
45864, 2020-045B
Orbit
HEO
Country
Flag of CNCN / PRC
Related business
Manufacturer
CALT
Mission
Spacecraft
Bus & Motor
CZ-3A STAGE 3, Unknown motor
Mass
~2,800 kg wet, ~2,800 kg dry
Launch date (UTC)
2020-07-09 (5 years ago)
Launch vehicle
Unknown
Launch site
Xichang Space Center, China (XSC)
Object type
Payload
Rocket body
Debris
Shape & HBR
Cyl + 1 Nozzle, 6.2 m
Radar Cross Section
32.704 m², Large (>1 m²)

Expand to show TLE details & history
Last TLE update: 20 hours ago

TLE from 20 hours ago
0 CZ-3B R/B
1 45864U 20045B   25354.13011468  .00051556 -15577-6  91157-3 0  9991
2 45864  28.3381 299.0916 5379691  51.6454 345.5652  5.11976342 67680
Epoch: 2025-12-20T03:07Z
TLE epoch observation values (Epoch: 2025-12-20T03:07:21.908Z)
Latitude
-0.00005°
Longitude
163.28881°
Altitude
1,200.926 km
Speed
8.784 km/s
True Right ascension
19h 56m 21s
True Declination
0° 00' 00"
Sunlit
Object was in daylight at epoch
Visualization orbit readout
Latitude
Unknown
Longitude
Unknown
Altitude
Unknown
Speed
Unknown
Apparent Right ascension
Unknown
Apparent Declination
Unknown
Sunlit
N/A
Visualization observer readout
Local Sidereal Time
21:37:14
Azimuth
Unknown
Elevation
Unknown
Doppler factor
Unknown
Orbital elements
Apogee altitude
15,497.179 km
Perigee altitude
193.563 km
Semi-major axis
14,223.508 km
Eccentricity
0.53797
Inclination
28.3381°
RAAN
299.0916°
Arg. of periapsis
51.6454°
True anomaly
308.34983°
Mean anomaly
345.5652°
Eccentric anomaly
330.2878°
Mean motion
1.27948 °/min
Orbital period
281.36 mins
BSTAR
0.00091157
Loading maneuver chart data...
Computing Atmospheric mass density...
Loading historical data...
Loading historical data...
Loading historical data...
Loading historical data...
Loading historical data...
Loading historical data...
Loading historical data...
Other satellites on launch #45 in the year 2020 (2020-07-09 UTC)

Documentation

Showing up to 5 results
|